Weather observations for the past three days for
Childress, Childress Municipal Airport
Metric (Imperial)
Date Time (cdt) Wind (kph) Vis. (km) Weather Sky Cond. Temperature (ºC) Relative Humidity Wind Chill (°C) Heat Index (°C) Pressure Precipitation (cm)
Air Dwpt 6 hour altimeter (cm) sea level (mb) 1 hr 3 hr 6 hr
Max. Min.
05 01:53 S 17 16.09 Fair CLR 28.3 18.9 57% 30 76.07 1010.7
05 00:53 S 17 16.09 Fair CLR 29.4 18.9 37.2 29.4 53% 31 76.07 1010.6
04 23:53 S 20 G 35 16.09 Fair CLR 30 18.9 51% 31 76.05 1010.4
04 22:53 S 15 16.09 Fair CLR 31.1 18.3 46% 32 76.05 1010.4
04 21:53 S 17 16.09 Fair CLR 32.2 18.9 45% 34 75.97 1009.6
04 20:53 SE 17 16.09 Fair CLR 33.9 17.2 37% 35 75.9 1008.4
04 19:53 S 13 G 30 16.09 Fair CLR 35 17.2 35% 36 75.84 1008.2
04 18:53 S 26 G 37 16.09 Partly Cloudy SCT100 37.2 17.8 40.6 36.1 32% 39 75.82 1007.4
04 17:53 SE 19 16.09 A Few Clouds FEW100 40 15 23% 40 75.77 1006.6
04 16:53 SE 11 16.09 Fair CLR 40 14.4 22% 40 75.77 1006.7
04 15:53 Vrbl 6 16.09 A Few Clouds FEW110 40 13.3 20% 39 75.82 1007.3
04 14:53 Vrbl 6 16.09 Fair CLR 39.4 13.9 22% 39 75.87 1008.1
04 13:53 Calm 16.09 Fair CLR 38.3 15 25% 38 75.92 1008.8
04 12:53 Calm 16.09 Fair CLR 36.1 15.6 36.1 23.9 29% 36 76 1009.7
04 11:53 SW 13 16.09 Fair CLR 35.6 16.7 32% 36 76.05 1010.4
04 10:53 S 9 16.09 Fair CLR 33.3 17.8 40% 34 76.05 1010.3
04 09:53 S 15 16.09 Fair CLR 30 19.4 53% 32 76.05 1010.5
04 08:53 S 17 16.09 Fair CLR 26.7 21.1 71% 28 76.05 1010.4
04 07:53 SE 13 16.09 Fair CLR 23.9 21.1 84% 24 76 1009.9
04 06:53 SE 15 16.09 Fair CLR 24.4 21.7 30 24.4 85% 25 75.95 1009.1
04 05:53 SE 17 16.09 Fair CLR 25.6 21.7 79% 27 75.92 1008.9
04 04:53 SE 17 16.09 Fair CLR 26.1 21.7 77% 28 75.92 1008.6
04 03:53 SE 19 16.09 Fair CLR 27.2 21.7 72% 29 75.92 1008.7
04 02:53 SE 19 16.09 Fair CLR 28.3 21.7 67% 31 75.92 1008.7
04 01:53 SE 19 16.09 Fair CLR 29.4 21.1 61% 32 75.95 1008.8
04 00:53 SE 17 16.09 Fair CLR 30 20 38.3 29.4 55% 32 75.92 1008.8
03 23:53 SE 6 16.09 Fair CLR 31.1 18.3 46% 32 75.97 1009.5
03 22:53 SE 19 16.09 Mostly Cloudy BKN110 32.8 16.7 38% 33 75.97 1009.4
03 21:53 SE 19 16.09 Fair CLR 33.3 15.6 34% 33 75.87 1008.2
03 20:53 SE 17 G 30 16.09 Fair CLR 34.4 15.6 32% 34 75.82 1007.5
03 19:53 SE 19 G 31 16.09 Fair CLR 36.1 16.1 30% 36 75.77 1006.7
03 18:53 E 19 G 35 16.09 Fair CLR 38.3 15 40.6 35.6 25% 38 75.74 1006.3
03 17:53 SE 17 16.09 A Few Clouds FEW110 38.9 15 24% 39 75.72 1005.9
03 16:53 E 17 G 35 16.09 Fair CLR 40 14.4 22% 40 75.72 1005.9
03 15:53 Calm 16.09 Fair CLR 39.4 13.3 21% 39 75.77 1006.8
03 14:53 Vrbl 9 16.09 Fair CLR 39.4 13.3 21% 39 75.84 1007.6
03 13:53 Calm 16.09 A Few Clouds FEW110 37.8 15.6 27% 38 75.92 1008.7
03 12:53 Calm 16.09 Fair CLR 36.1 16.7 36.1 23.9 32% 37 76 1009.8
03 11:53 Calm 16.09 Fair CLR 33.9 16.7 36% 34 76.05 1010.5
03 10:53 S 11 16.09 A Few Clouds FEW120 31.7 18.3 45% 33 76.05 1010.5
03 09:53 S 13 16.09 A Few Clouds FEW120 29.4 18.9 53% 31 76.07 1010.8
03 08:53 S 15 16.09 Fair CLR 26.7 18.3 60% 28 76.07 1011.1
03 07:53 SE 15 16.09 Fair CLR 24.4 17.2 64% 25 76.05 1010.8
03 06:53 SE 15 16.09 Fair CLR 25 17.2 30.6 25 62% 26 76.02 1010.3
03 05:53 SE 13 16.09 Fair CLR 25.6 16.7 58% 26 76.05 1010.3
03 04:53 SE 13 16.09 Fair CLR 26.7 16.7 54% 27 76.05 1010.3
03 03:53 S 13 16.09 Fair CLR 27.2 16.7 53% 28 76.05 1010.3
03 02:53 S 19 G 31 16.09 Fair CLR 28.3 16.7 49% 29 76.05 1010.5
03 01:53 S 19 G 35 16.09 Fair CLR 29.4 16.7 46% 30 76.05 1010.3
03 00:53 S 22 G 44 16.09 Fair CLR 30.6 16.1 37.8 30 42% 31 76.02 1010.1
02 23:53 SE 19 G 35 16.09 Fair CLR 31.1 15.6 39% 31 76 1009.8
02 22:53 SE 20 G 37 16.09 Fair CLR 32.2 15 35% 32 76.02 1010.0
02 21:53 SE 22 16.09 Fair CLR 32.8 13.9 32% 32 75.97 1009.6
02 20:53 SE 13 16.09 Fair CLR 32.8 12.2 28% 32 75.95 1009.1
02 19:53 SE 7 16.09 Fair CLR 34.4 12.2 26% 33 75.92 1009.0
02 18:53 S 13 16.09 A Few Clouds FEW110 37.8 11.7 39.4 36.1 21% 37 75.9 1008.6
02 17:53 SE 9 G 28 16.09 Fair CLR 38.3 11.7 20% 37 75.9 1008.4
02 16:53 Vrbl 9 16.09 A Few Clouds FEW110 38.3 11.7 20% 37 75.92 1008.8
02 15:53 S 15 16.09 Fair CLR 39.4 12.8 20% 39 76 1009.6
02 14:53 SW 7 16.09 A Few Clouds FEW110 38.3 13.3 22% 38 76.07 1010.6
02 13:53 SE 15 16.09 Fair CLR 38.3 13.9 23% 38 76.12 1011.5
02 12:53 W 6 16.09 Fair CLR 36.7 15 36.7 23.9 27% 37 76.2 1012.6
02 11:53 SW 19 16.09 Fair CLR 35 15.6 31% 35 76.28 1013.5
02 10:53 SW 17 14.48 Fair CLR 33.3 16.1 36% 33 76.28 1013.7
02 09:53 S 19 16.09 Fair CLR 31.1 16.7 42% 31 76.28 1013.5
02 08:53 S 19 G 28 16.09 Fair CLR 27.8 16.7 51% 28 76.28 1013.6
02 07:53 S 11 16.09 Fair CLR 24.4 16.7 62% 25 76.25 1013.4
02 06:53 S 11 16.09 Fair CLR 23.9 16.7 27.8 23.9 64% 25 76.23 1012.9
02 05:53 S 11 16.09 Fair CLR 24.4 16.1 60% 26 76.23 1012.8
02 04:53 S 13 16.09 Fair CLR 25 16.1 58% 26 76.23 1012.8
02 03:53 S 13 16.09 Fair CLR 26.1 15.6 52% 27 76.2 1012.8
02 02:53 S 13 16.09 Fair CLR 26.7 15.6 51% 27 76.23 1012.7
Date Time (cdt) Wind (kph) Vis. (km) Weather Sky Cond. Air Dwpt Max. Min. Relative Humidity Wind Chill (°C) Heat Index (°C) altimeter (cm) sea level (mb) 1 hr 3 hr 6 hr
6 hour
Temperature (ºC) Pressure Precipitation (cm)